When you browse on this site, cookies collect data to enhance your experience and personalize the content and advertising you see.
Visit our Privacy Policy to learn more. By continuing to use the site, you agree to this use of cookies and data.
  • In Latvia
  • List of Countries
  • For 7 days
  • Water Temperature
  • Satellite Maps
  • Weather Map
  • Weather Widgets
  • user-avatar
    Login

    Hourly Weather Abomey

    Today, 21 April, Sunday

    Time Temperature Precipitation Wind Pressure Humidity
    00:00 +28°C° 0 mm 2 mps 738 mmHg 83%
    01:00 +28°C° 0 mm 2 mps 738 mmHg 84%
    02:00 +28°C° 0 mm 2 mps 738 mmHg 86%
    03:00 +27°C° 0 mm 2 mps 737 mmHg 87%
    04:00 +27°C° 0 mm 2 mps 737 mmHg 88%
    05:00 +27°C° 0 mm 2 mps 737 mmHg 89%
    06:00 +27°C° 0 mm 2 mps 737 mmHg 89%
    07:00 +29°C° 0 mm 2 mps 737 mmHg 79%
    08:00 +31°C° 0 mm 2 mps 738 mmHg 69%
    09:00 +34°C° 0 mm 2 mps 738 mmHg 59%
    10:00 +36°C° 0 mm 2 mps 738 mmHg 50%
    11:00 +39°C° 0 mm 1 mps 738 mmHg 41%
    12:00 +42°C° 0 mm 1 mps 737 mmHg 32%
    13:00 +42°C° 0 mm 1 mps 737 mmHg 30%
    14:00 +43°C° 0 mm 1 mps 736 mmHg 28%
    15:00 +40°C° 0 mm 0 mps 735 mmHg 25%
    16:00 +41°C° 0 mm 2 mps 735 mmHg 32%
    17:00 +38°C° 0 mm 3 mps 735 mmHg 38%
    18:00 +36°C° 0 mm 4 mps 735 mmHg 44%
    19:00 +34°C° 0 mm 4 mps 736 mmHg 51%
    20:00 +33°C° 0 mm 4 mps 736 mmHg 59%
    21:00 +30°C° 0 mm 4 mps 737 mmHg 66%
    22:00 +30°C° 0 mm 4 mps 737 mmHg 68%
    23:00 +30°C° 0 mm 4 mps 737 mmHg 71%

    Tomorrow, 22 April, Monday

    Time Temperature Precipitation Wind Pressure Humidity
    00:00 +29°C° 0 mm 3 mps 737 mmHg 73%
    01:00 +29°C° 0 mm 3 mps 737 mmHg 75%
    02:00 +29°C° 0 mm 3 mps 736 mmHg 76%
    03:00 +29°C° 0 mm 3 mps 736 mmHg 77%
    04:00 +29°C° 0 mm 3 mps 736 mmHg 79%
    05:00 +28°C° 0 mm 3 mps 736 mmHg 80%
    06:00 +28°C° 0 mm 3 mps 737 mmHg 81%
    07:00 +30°C° 0 mm 3 mps 737 mmHg 73%
    08:00 +33°C° 0 mm 3 mps 738 mmHg 66%
    09:00 +34°C° 0 mm 3 mps 738 mmHg 58%
    10:00 +36°C° 0 mm 3 mps 738 mmHg 51%
    11:00 +38°C° 0 mm 3 mps 738 mmHg 45%
    12:00 +40°C° 0 mm 3 mps 737 mmHg 38%
    13:00 +39°C° 0 mm 3 mps 737 mmHg 41%
    14:00 +38°C° 0 mm 3 mps 736 mmHg 44%
    15:00 +37°C° 0 mm 3 mps 735 mmHg 46%
    16:00 +35°C° 0.8 mm 3 mps 735 mmHg 53%
    17:00 +34°C° 0.8 mm 3 mps 735 mmHg 61%
    18:00 +31°C° 0.8 mm 3 mps 735 mmHg 68%
    19:00 +31°C° 0 mm 3 mps 736 mmHg 70%
    20:00 +30°C° 0 mm 3 mps 736 mmHg 72%
    21:00 +29°C° 0 mm 3 mps 737 mmHg 74%
    22:00 +29°C° 0.2 mm 3 mps 737 mmHg 75%
    23:00 +29°C° 0.2 mm 2 mps 737 mmHg 77%

    Day after tomorrow, 23 April, Tuesday

    Time Temperature Precipitation Wind Pressure Humidity
    00:00 +28°C° 0.2 mm 1 mps 737 mmHg 79%
    01:00 +28°C° 0 mm 1 mps 737 mmHg 80%
    02:00 +28°C° 0 mm 2 mps 736 mmHg 81%
    03:00 +27°C° 0 mm 2 mps 736 mmHg 82%
    04:00 +27°C° 0 mm 2 mps 736 mmHg 83%
    05:00 +27°C° 0 mm 2 mps 736 mmHg 83%
    06:00 +27°C° 0 mm 2 mps 736 mmHg 83%
    07:00 +29°C° 0 mm 2 mps 737 mmHg 73%
    08:00 +31°C° 0 mm 3 mps 738 mmHg 64%
    09:00 +34°C° 0 mm 3 mps 739 mmHg 54%
    10:00 +36°C° 0 mm 3 mps 738 mmHg 48%
    11:00 +38°C° 0 mm 3 mps 738 mmHg 43%
    12:00 +39°C° 0 mm 2 mps 738 mmHg 37%
    13:00 +38°C° 0 mm 2 mps 737 mmHg 40%
    14:00 +37°C° 0 mm 2 mps 736 mmHg 44%
    15:00 +36°C° 0 mm 2 mps 735 mmHg 47%
    16:00 +35°C° 0.2 mm 2 mps 735 mmHg 52%
    17:00 +34°C° 0.2 mm 2 mps 735 mmHg 56%
    18:00 +32°C° 0.2 mm 2 mps 736 mmHg 61%
    19:00 +31°C° 0.5 mm 2 mps 736 mmHg 66%
    20:00 +30°C° 0.5 mm 3 mps 737 mmHg 70%
    21:00 +30°C° 0.5 mm 4 mps 738 mmHg 74%
    22:00 +29°C° 3.4 mm 3 mps 738 mmHg 79%
    23:00 +28°C° 3.4 mm 3 mps 738 mmHg 83%

    24 April, Wednesday

    Time Temperature Precipitation Wind Pressure Humidity
    00:00 +27°C° 3.4 mm 2 mps 738 mmHg 87%
    01:00 +27°C° 0 mm 2 mps 737 mmHg 87%
    02:00 +27°C° 0 mm 2 mps 737 mmHg 87%
    03:00 +27°C° 0 mm 2 mps 736 mmHg 87%
    04:00 +27°C° 0 mm 2 mps 736 mmHg 88%
    05:00 +27°C° 0 mm 2 mps 737 mmHg 89%
    06:00 +27°C° 0 mm 2 mps 737 mmHg 89%
    07:00 +29°C° 0 mm 2 mps 738 mmHg 82%
    08:00 +30°C° 0 mm 3 mps 738 mmHg 74%
    09:00 +33°C° 0 mm 3 mps 739 mmHg 67%
    10:00 +34°C° 0 mm 3 mps 739 mmHg 61%
    11:00 +36°C° 0 mm 3 mps 739 mmHg 56%
    12:00 +37°C° 0 mm 3 mps 738 mmHg 51%
    13:00 +37°C° 0.4 mm 3 mps 737 mmHg 50%
    14:00 +37°C° 0.4 mm 3 mps 737 mmHg 50%
    15:00 +37°C° 0.4 mm 3 mps 736 mmHg 49%
    16:00 +36°C° 1.7 mm 3 mps 736 mmHg 56%
    17:00 +34°C° 1.7 mm 3 mps 737 mmHg 64%
    18:00 +31°C° 1.7 mm 3 mps 737 mmHg 71%
    19:00 +30°C° 0.1 mm 3 mps 738 mmHg 75%
    20:00 +30°C° 0.1 mm 3 mps 738 mmHg 78%
    21:00 +29°C° 0.1 mm 3 mps 739 mmHg 82%
    22:00 +29°C° 0 mm 3 mps 739 mmHg 83%
    23:00 +28°C° 0 mm 3 mps 738 mmHg 83%

    25 April, Thursday

    Time Temperature Precipitation Wind Pressure Humidity
    00:00 +28°C° 0 mm 3 mps 738 mmHg 84%
    01:00 +28°C° 0 mm 3 mps 738 mmHg 85%
    02:00 +28°C° 0 mm 2 mps 737 mmHg 86%
    03:00 +28°C° 0 mm 2 mps 737 mmHg 87%
    04:00 +28°C° 0 mm 2 mps 737 mmHg 87%
    05:00 +27°C° 0 mm 2 mps 738 mmHg 87%
    06:00 +27°C° 0 mm 2 mps 738 mmHg 87%
    07:00 +29°C° 0 mm 2 mps 739 mmHg 80%
    08:00 +31°C° 0 mm 3 mps 739 mmHg 72%
    09:00 +33°C° 0 mm 3 mps 740 mmHg 64%
    10:00 +34°C° 0 mm 3 mps 740 mmHg 60%
    11:00 +35°C° 0 mm 2 mps 739 mmHg 56%
    12:00 +36°C° 0 mm 2 mps 739 mmHg 51%
    13:00 +36°C° 1.1 mm 2 mps 738 mmHg 53%
    14:00 +36°C° 1.1 mm 2 mps 737 mmHg 54%
    15:00 +36°C° 1.1 mm 2 mps 736 mmHg 56%
    16:00 +35°C° 0.1 mm 2 mps 736 mmHg 59%
    17:00 +34°C° 0.1 mm 2 mps 737 mmHg 63%
    18:00 +32°C° 0.1 mm 2 mps 737 mmHg 66%
    19:00 +31°C° 0 mm 2 mps 738 mmHg 68%
    20:00 +31°C° 0 mm 3 mps 738 mmHg 71%
    21:00 +30°C° 0 mm 3 mps 739 mmHg 73%
    22:00 +29°C° 0.2 mm 3 mps 738 mmHg 76%
    23:00 +29°C° 0.2 mm 2 mps 738 mmHg 79%

    26 April, Friday

    Time Temperature Precipitation Wind Pressure Humidity
    00:00 +28°C° 0.2 mm 2 mps 738 mmHg 82%
    01:00 +28°C° 0 mm 2 mps 737 mmHg 82%
    02:00 +28°C° 0 mm 2 mps 737 mmHg 83%
    03:00 +28°C° 0 mm 2 mps 736 mmHg 83%
    04:00 +28°C° 0 mm 2 mps 737 mmHg 83%
    05:00 +28°C° 0 mm 2 mps 737 mmHg 84%
    06:00 +27°C° 0 mm 2 mps 737 mmHg 84%
    07:00 +29°C° 0 mm 2 mps 738 mmHg 76%
    08:00 +31°C° 0 mm 3 mps 738 mmHg 67%
    09:00 +34°C° 0 mm 3 mps 739 mmHg 59%
    10:00 +36°C° 0 mm 3 mps 738 mmHg 53%
    11:00 +38°C° 0 mm 3 mps 738 mmHg 47%
    12:00 +39°C° 0 mm 2 mps 737 mmHg 42%
    13:00 +39°C° 0 mm 2 mps 737 mmHg 44%
    14:00 +38°C° 0 mm 2 mps 736 mmHg 46%
    15:00 +37°C° 0 mm 2 mps 735 mmHg 48%
    16:00 +36°C° 0 mm 3 mps 735 mmHg 50%
    17:00 +35°C° 0 mm 3 mps 736 mmHg 53%
    18:00 +34°C° 0 mm 4 mps 736 mmHg 56%
    19:00 +33°C° 0.1 mm 3 mps 737 mmHg 63%
    20:00 +31°C° 0.1 mm 3 mps 737 mmHg 69%
    21:00 +30°C° 0.1 mm 3 mps 738 mmHg 75%
    22:00 +29°C° 0.1 mm 3 mps 737 mmHg 78%
    23:00 +29°C° 0.1 mm 3 mps 737 mmHg 80%
    Show more